Location: Asheville, NC
(35.6000°N, 82.5500°W)
Time: 16:36:39
(UTC-05:00)

Iridium 28 - Pass Details

Date: 10 January 2018
Orbit: 772 x 774 km, 86.4° (Epoch: 17 January)

Event Time Altitude Azimuth Distance (km) Brightness Sun altitude
Rises 05:14:06 0° 135° (SE) 3,234 9.5 -29.1°
Reaches altitude 10° 05:17:29 10° 111° (ESE) 2,311 8.9 -28.4°
Maximum altitude 05:20:11 14° 80° (E) 2,019 8.5 -27.9°
Drops below altitude 10° 05:22:54 10° 48° (NE) 2,318 8.4 -27.3°
Sets 05:26:17 0° 25° (NNE) 3,250 8.9 -26.7°
